Terminal Aerodrome Forecast
Issued by NWS

Home | Current Version | Previous Version | Text Only | Print | Product List | Glossary On
Versions: 1 2 3 4 5 6 7 8 9 10 11 12 13 14 15 16 17 18 19 20
000
FTUS44 KLZK 081730
TAFPBF
TAF
KPBF 081730Z 0818/0918 35011G20KT P6SM BKN250
     FM090100 35006KT P6SM SCT250
     FM091200 03005KT P6SM SCT250=

USA.gov is the U.S. government's official web portal to all federal, state and local government web resources and services.